www.pogodaiklimat.ru

Погода и климат >> Архив погоды >> Пакистан >> Badin


ПОГОДА в Badin

  • Прогноз погоды в Badin
  • Монитор погоды в Badin
  • Климат города

АРХИВ ПОГОДЫ в Badin

Время (UTC), дата Ветер
(напр.,м/с)
 
Видим.   Явления Облачность Т
(С)
Тd
(С)
f
(%)
Тe
(С)
Тes
(С)
Комфортность P
(гПа)
Po
(гПа)
Тmin
(С)
Tmax
(С)
R
(мм)
R24
(мм)
S
(см)
18 20.06 ЮЗ 2 4000 м ясно +30.5 +24.9 72 +44 +44 опасность
перегрева
999.7 1000.0
21 20.06 ЮЗ 2 4000 м ясно +29.0 +25.5 81 +43 +43 опасность
перегрева
998.3 1000.0
00 21.06 ЮЗ 3 4000 м 10/10 900 м
[St Ac trans]
+28.0 +25.9 88 +42 +42 опасность
перегрева
997.5 996.2
03 21.06 ЮЗ 2 10 км 9/9 900 м
[Sc Ac trans]
+31.0 +26.1 75 +46 +47 опасность
перегрева
999.4 998.1 +28.5
06 21.06 З 2 10 км 8/4 300 м
[Sc Ac trans]
+34.0 +25.7 62 +49 +56 опасность
перегрева
1000.4 1000.0
09 21.06 З 4 10 км 9/9 900 м
[Sc Ac trans]
+35.5 +24.3 52 +47 +49 опасность
перегрева
998.1 998.0
12 21.06 З 4 10 км 10/10 900 м
[St Ac trans]
+35.0 +24.5 55 +48 +48 опасность
перегрева
997.4 996.0 +36.0
15 21.06 ЮЗ 2 4000 м 10/10 300 м
[St]
+32.0 +25.0 67 +46 +46 опасность
перегрева
998.5 1000.0
18 21.06 З 4 4000 м ясно +30.5 +25.6 75 +45 +45 опасность
перегрева
1000.1 1000.0
21 21.06 З 3 4000 м ясно +29.0 +25.5 81 +43 +43 опасность
перегрева
999.1 999.0
00 22.06 З 2 4000 м ясно +28.5 +25.7 85 +42 +42 опасность
перегрева
998.1 996.8
03 22.06 4000 м н/о +31.5 +26.0 73 +47 +49 опасность
перегрева
999.5 998.2 +29.0
06 22.06 З 5 4000 м 8/8 900 м
[St]
+34.5 +24.7 57 +48 +50 опасность
перегрева
1000.5 1001.0
09 22.06 З 3 4000 м 8/8 300 м
[St]
+36.5 +23.8 48 +47 +51 опасность
перегрева
998.8 1000.0
12 22.06 З 4 10 км 9/5 900 м
[St Ac trans]
+35.0 +24.5 55 +48 +49 опасность
перегрева
997.7 996.5 +37.0
15 22.06 З 2 4000 м 8/4 300 м
[St Ac trans]
+32.0 +25.0 67 +46 +46 опасность
перегрева
1000.1 1000.0
18 22.06 З 3 4000 м 9/5 900 м
[St Ac trans]
+30.5 +25.6 75 +45 +45 опасность
перегрева
1002.2 1002.0
21 22.06 З 3 4000 м 9/5 900 м
[St Ac trans]
+29.0 +25.5 81 +43 +43 опасность
перегрева
1000.6 1001.0
00 23.06 З 2 4000 м 8/4 300 м
[St Ac trans]
+28.5 +25.7 85 +42 +42 опасность
перегрева
999.3 998.0
03 23.06 10 км н/о +31.0 +25.4 72 +45 +46 опасность
перегрева
1001.6 1000.3 +29.1
06 23.06 З 2 10 км 8/8 300 м
[St]
+33.5 +25.1 62 +48 +52 опасность
перегрева
1002.4 1000.0
12 23.06 ЮЗ 4 10 км 5/5 900 м
[Sc]
+35.5 +25.1 55 +49 +51 опасность
перегрева
998.6 997.4
15 23.06 ЮЗ 4 4000 м 5/5 900 м
[Sc]
+32.5 +24.8 64 +46 +46 опасность
перегрева
998.6 999.0
18 23.06 ЮЗ 3 4000 м ясно +30.5 +24.9 72 +44 +44 опасность
перегрева
1001.5 1002.0
21 23.06 З 2 4000 м ясно +29.0 +25.5 81 +43 +43 опасность
перегрева
1000.0 1000.0
00 24.06 З 1 4000 м ясно +28.5 +25.7 85 +42 +42 опасность
перегрева
998.3 997.0
03 24.06 З 2 10 км 5/5 900 м
[Sc]
+35.1 +26.0 59 +51 +53 опасность
перегрева
998.9 997.6 +29.0
06 24.06 З 2 10 км 5/5 300 м
[St]
+33.5 +25.1 62 +48 +58 опасность
перегрева
1000.5 1000.0
09 24.06 10 км н/о +36.0 +24.9 53 +49 +58 опасность
перегрева
998.6 1000.0
12 24.06 З 3 10 км 4/4 900 м
[St]
+36.0 +25.6 55 +51 +53 опасность
перегрева
996.7 995.5 +36.5
15 24.06 З 1 4000 м 3/3 300 м
[St]
+32.0 +24.2 63 +44 +44 опасность
перегрева
999.2 1000.0
18 24.06 З 2 4000 м ясно +30.0 +25.1 75 +43 +43 опасность
перегрева
1001.5 1002.0
21 24.06 З 2 4000 м ясно +28.5 +25.0 81 +41 +41 опасность
перегрева
999.7 1000.0
00 25.06 З 1 4000 м ясно +28.0 +25.2 85 +41 +41 опасность
перегрева
998.3 1000.0
03 25.06 З 1 10 км 4/4 900 м
[St]
+31.0 +24.6 69 +44 +48 опасность
перегрева
999.0 997.7 +27.0
06 25.06 В 1 10 км ясно +34.5 +24.7 57 +48 +73 опасность
перегрева
1001.0 1000.0
09 25.06 Ю 1 10 км ясно +37.0 +24.4 49 +49 +73 опасность
перегрева
996.8 1000.0
12 25.06 Ю 2 10 км ясно +38.0 +24.0 45 +49 +54 опасность
перегрева
995.3 994.1 +39.0
15 25.06 З 1 4000 м 3/0
[Ac trans]
+34.0 +24.1 56 +46 +46 опасность
перегрева
997.9 1000.0
18 25.06 З 1 4000 м 10/4 300 м
[St Ac trans]
+28.0 +25.2 85 +41 +41 опасность
перегрева
1000.3 1000.0 2
00 26.06 З 1 4000 м 6/6 900 м
[St]
+30.0 +24.3 72 +42 +42 опасность
перегрева
997.0 995.7 2
03 26.06 Ю 1 10 км 5/0
[Ac trans]
+31.5 +23.6 63 +43 +47 опасность
перегрева
998.3 997.0 +29.1
06 26.06 Ю 1 10 км 5/0
[Ac trans]
+34.5 +24.7 57 +48 +64 опасность
перегрева
1000.0 1000.0
09 26.06 Ю 1 10 км 5/0
[Ac trans]
+37.0 +24.4 49 +49 +66 опасность
перегрева
998.0 1000.0
12 26.06 Ю 1 10 км ясно +39.5 +24.2 42 +51 +57 опасность
перегрева
995.8 994.6 +40.1
15 26.06 З 1 4000 м ясно +34.0 +24.1 56 +46 +46 опасность
перегрева
1001.9 1000.0
18 26.06 Ю 1 4000 м ясно +32.0 +25.0 67 +46 +46 опасность
перегрева
1003.8 1004.0
21 26.06 Ю 1 4000 м ясно +30.5 +24.3 70 +43 +43 опасность
перегрева
1002.6 1003.0
00 27.06 Ю 1 4000 м ясно +29.0 +25.5 81 +43 +43 опасность
перегрева
1001.3 1000.0
03 27.06 З 1 10 км 9/0
[Ac trans Ci fib]
+30.0 +25.1 75 +43 +46 опасность
перегрева
1001.7 1000.4 +28.0
06 27.06 З 1 10 км 9/0
[Ac trans Ci fib]
+34.5 +24.7 57 +48 +58 опасность
перегрева
998.9 999.0
09 27.06 З 1 10 км 10/6 900 м
[St Ac trans]
+37.0 +24.4 49 +49 +53 опасность
перегрева
997.0 997.0
12 27.06 Ю 1 10 км 8/0
[Ac trans Ci fib]
+37.0 +24.4 49 +49 +52 опасность
перегрева
995.5 994.3 +38.0
15 27.06 штиль 0 4000 м 8/0
[Ac trans Ci fib]
+33.5 +23.5 56 +44 +44 опасность
перегрева
997.5 998.0

 

Местоположение метеостанции Badin (Пакистан): широта 24.63 долгота 68.90 высота над уровнем моря 11 м.

В архиве по умолчанию представлена погода в Badin за последнюю неделю. Архивные данные за месяц целиком и за предыдущие месяцы, начиная с января 2011 года, Вы можете получить, выбрав интересующий диапазон дат из раскрывающегося списка и нажав кнопку "Ввод!".

Внимание! Время в таблицах - всемирное. Для получения местного времени необходимо прибавить поправку, которая в Badin равна 5 ч.

Смотрите также архив погоды в соседних городах и на ближайших метеорологических станциях:

Погода в Hyderabad Airport (Пакистан) (96 км)
Погода в Chhor (Пакистан) (133 км)
Погода в Naliya (Gujarat, Индия) (154 км)
Погода в Bhuj-Rudramata (Gujarat, Индия) (172 км)
Погода в Karachi (Пакистан) (181 км)
Погода в Nawabshah (Пакистан) (188 км)
Погода в Mandvi (Gujarat, Индия) (205 км)
Погода в Kandla (Gujarat, Индия) (209 км)
Погода в New Kandla (Gujarat, Индия) (226 км)
Погода в Okha (Gujarat, Индия) (240 км)

Пояснения к столбцам:

Ветер - указаны скорость ветра в м/с - средняя за 10 мин, порывы в срок и между сроками (в фигурных скобках) и направление, откуда дует ветер: С - северный, СВ - северо-восточный, В - восточный, ЮВ - юго-восточный, Ю - южный, ЮЗ - юго-западный, З - западный, СЗ - северо-западный.
Видимость - горизонтальная дальность видимости в метрах или километрах. При видимости от 1 до 10 км при отсутствии осадков обычно наблюдается дымка, при ухудшении видимости до 1 км и менее - туман. В сухую погоду видимость может ухудшаться дымом, пылью или мглою.
Явления - указаны атмосферные явления, наблюдавшиеся в срок или в последний час перед сроком; фигурными скобками обозначены явления, наблюдавшиеся между сроками (за 1-3 часа до срока); квадратными скобками обозначены град или гололедные отложения с указанием их диаметра в мм.
Облачность - указаны через наклонную черту общая и нижняя облачность в баллах и высота нижней границы облаков в метрах; квадратными скобками обозначены формы облаков: Ci - перистые, Cs - перисто-слоистые, Cc - перисто-кучевые, Ac - высококучевые, As - высокослоистые, Sc - слоисто-кучевые, Ns - слоисто-дождевые, Cu - кучевые, Cb - кучево-дождевые. Подробнее классификацию облаков см. в Атласе облаков (PDF).
T - Температура воздуха - температура, измеренная на высоте 2 м над землей.
Td - Температура точки росы - температура, при понижении до которой содержащийся в воздухе водяной пар достигнет насыщения.
f - Относительная влажность воздуха - влажноcть воздуха, измеренная на высоте 2 м над землей.
Te - Эффективная температура - температура, которую ощущает одетый по сезону человек в тени. Характеристика душности погоды. При расчете учитывается влияние влажности воздуха и скорости ветра на теплоощущения человека.
Tes - Эффективная температура на солнце - температура, которую ощущает человек, с поправкой на солнечный нагрев. Характеристика знойности погоды. Зависит от высоты солнца над горизонтом, облачности и скорости ветра. Ночью, в пасмурную погоду, а также при ветре 12 м/с и более поправка равна нулю.
P - Атмосферное давление - приведенное к уровню моря атмосферное давление.
Po - Атмосферное давление - измеренное на уровне метеостанции атмосферное давление.
Tmin - Минимальная температура - минимум температуры воздуха на высоте 2 м над землей.
Tmax - Максимальная температура - максимум температуры воздуха на высоте 2 м над землей.
R - Количество осадков - Количество выпавших осадков за период времени, мм. При наведении курсора мыши на число - период времени, за который выпало указанное количество осадков.
R24 - Количество осадков - Количество выпавших осадков за 24 часа, мм.
S - Снежный покров - Высота снежного покрова, см. При наведении курсора мыши на число - состояние снежного покрова и степень покрытия местности в баллах.